Orbital elements:
2019 FE                                                  Earth MOID = 0.0016 AU
Epoch 2019 Apr. 27.0 TT = JDT 2458600.5                 MPC
M  26.94867              (2000.0)            P               Q
n   0.37054460     Peri.  316.92584     -0.70047319     -0.71367596
a   1.9197399      Node   177.53663     +0.66667792     -0.65533080
e   0.5257266      Incl.    2.64332     +0.25471134     -0.24740282
P   2.66           H   24.1           G   0.15           U   4
Residuals in seconds of arc
190317 T08  0.5-  0.6+    190318 J95  0.1-  0.4-    190319 Q62  0.2+  0.5+
190317 T08  0.4-  0.6+    190318 W88  0.7+  0.5+    190319 Q62  0.1-  0.1+
190317 T08  0.8+  0.6-    190318 W88  0.3+  1.1+    190319 Q62  0.0   0.3+
190317 T08  0.7+  0.5-    190318 W88  0.3-  0.6+    190319 Q62  0.3+  0.5+
190318 K88  0.0   0.1-    190318 W88  0.2-  0.7+    190319 Q62  0.0   0.4+
190318 K88  0.0   0.1+    190318 H01  0.1+  0.1-    190319 Q62  0.2+  0.3-
190318 K88  0.0   0.2-    190318 I52  0.2-  0.0     190319 Q62  0.0   0.0
190318 K88  0.1+  0.4+    190318 I52  0.5+  0.5-    190319 Q62  0.2+  0.4+
190318 K88  0.1-  0.1-    190318 I52  0.2+  0.1-    190319 Q62  0.1+  0.2+
190318 K88  0.1-  0.1-    190318 I52  0.1+  0.1-    190319 Q62  0.0   0.7-
190318 K88  0.1+  0.2-    190318 H01  0.0   0.1-    190319 900  0.1-  0.0
190318 K88  0.2+  0.2-    190318 H01  0.1+  0.2-    190319 900  0.1+  0.2+
190318 K88  0.1-  0.0     190318 H01  0.1-  0.0     190319 900  0.1+  0.0
190318 K88  0.4+  0.7-    190318 703  0.8-  0.6+    190320 I93  0.4-  0.0
190318 K88  0.0   0.1+    190318 703  0.4-  0.5+    190320 I93  0.5-  0.1+
190318 K88  0.0   0.0     190318 703  0.7-  0.7+    190320 I93  0.5-  0.3+
190318 K88  0.1-  0.2-    190318 703  0.0   1.3+    190320 K87  0.5-  0.6-
190318 K88  0.0   0.1+    190319 204  0.2-  0.5-    190320 K87  0.5-  0.5-
190318 C95  0.0   0.3-    190319 204  0.4-  0.1+    190320 K87  0.4-  0.4-
190318 C95  0.1-  0.0     190319 204  0.0   0.4-    190320 K87  0.3-  0.0
190318 C95  0.4+  0.1+    190319 204  0.1+  0.4-    190320 I47  0.0   0.2+
190318 C95  0.4+  0.2+    190319 G40  0.3+  0.2+    190320 I47  0.1-  0.3+
190318 C95  0.1+  0.1+    190319 G40  0.3-  0.1+    190320 I47  0.4-  0.1+
190318 C95  0.3-  0.1-    190319 G40  0.2-  0.4-    190320 I47  0.1+  0.3+
190318 C95  0.1+  0.1-    190319 718  2.0+  0.7-    190320 I47  0.7-  0.5+
190318 C95  0.1-  0.1-    190319 718  2.3+  0.3-    190320 I47  0.6-  0.2+
190318 J95  0.0   0.1+    190319 718  1.0+  0.4-    190320 I47  0.1-  0.1-
190318 J95  0.2+  0.0     190319 718  1.6+  1.3-
190318 J95  0.2-  0.2-    190319 Q62  0.3+  0.1+

Ephemeris:
2019 FE                  a,e,i = 1.92, 0.53, 3                   q = 0.9105
Date    TT    R. A. (2000) Decl.     Delta      r     Elong.  Phase     V
2019 02 18    01 45 21.7 +00 56 46   0.1500  0.9140    56.5   115.6    24.3
...
2019 03 05    01 49 03.8 -00 18 30   0.06296 0.9462    42.5   134.9    24.2
...
2019 03 13    01 22 47.1 -08 03 30   0.01754 0.9783    28.4   151.1    23.9
...
2019 03 19    14 39 20.8 -12 47 35   0.01775 1.0083   136.3    43.0    17.0
2019 03 20    14 29 35.4 -10 14 56   0.02331 1.0137   140.3    38.9    17.5
2019 03 21    14 23 37.1 -08 40 32   0.02893 1.0192   143.0    36.0    17.9
...
2019 03 27    14 09 26.0 -05 07 02   0.06317 1.0542   152.9    25.6    19.4
...
2019 04 04    14 01 59.7 -03 48 57   0.1105  1.1056   162.1    16.2    20.4
...
2019 04 19    13 53 43.5 -03 17 09   0.2092  1.2117   172.1     6.5    21.6

A. U. Tomatic                (C) Copyright 2019 MPC           M.P.E.C. 2019-F46



More information about the Iaude mailing list